Location: Ch�tillon
(48.8024°N, 2.2935°E)
Time: 03:14:52
(UTC+00:00)

CAS-4A - Pass Details

Date: 07 July 2022
Orbit: 521 x 537 km, 43.0° (Epoch: 13 August)

Event Time Altitude Azimuth Distance (km) Brightness Sun altitude
Exits shadow 02:21:40 12° 250° (WSW) 1,630 ? -11.5°
Maximum altitude 02:24:58 34° 187° (S) 875 ? -11.2°
Drops below altitude 10° 02:28:37 10° 122° (ESE) 1,759 ? -10.9°
Sets 02:30:58 0° 113° (ESE) 2,650 ? -10.6°
